TimeEDT,TemperatureF,Dew PointF,Humidity,Sea Level PressureIn,VisibilityMPH,Wind Direction,Wind SpeedMPH,Gust SpeedMPH,PrecipitationIn,Events,Conditions,WindDirDegrees,DateUTC
12:54 AM,69.1,64.9,87,30.06,10.0,SSW,6.9,-,N/A,,Overcast,210,2013-08-22 04:54:00
1:54 AM,69.1,64.9,87,30.07,10.0,SSW,3.5,-,N/A,,Overcast,210,2013-08-22 05:54:00
2:54 AM,69.1,64.9,87,30.09,10.0,NW,5.8,-,N/A,,Overcast,310,2013-08-22 06:54:00
3:54 AM,70.0,66.0,87,30.07,10.0,SW,3.5,-,N/A,,Overcast,220,2013-08-22 07:54:00
4:54 AM,69.1,66.9,93,30.06,8.0,SW,5.8,-,0.01,,Overcast,230,2013-08-22 08:54:00
5:54 AM,69.1,66.0,90,30.00,8.0,SSW,11.5,-,0.01,Rain,Light Rain,200,2013-08-22 09:54:00
6:54 AM,69.1,66.0,90,30.05,5.0,Calm,Calm,-,0.00,,Mostly Cloudy,0,2013-08-22 10:54:00
7:54 AM,68.0,66.9,96,30.07,4.0,Calm,Calm,-,N/A,,Mostly Cloudy,0,2013-08-22 11:54:00
8:54 AM,70.0,68.0,93,30.08,5.0,SSW,3.5,-,N/A,,Overcast,200,2013-08-22 12:54:00
9:54 AM,73.0,69.1,87,30.08,5.0,WSW,5.8,-,N/A,,Overcast,240,2013-08-22 13:54:00
10:54 AM,73.9,68.0,82,30.09,6.0,WSW,10.4,-,N/A,,Haze,240,2013-08-22 14:54:00
11:54 AM,71.1,69.1,93,30.09,4.0,WSW,10.4,-,0.32,Rain,Heavy Rain,240,2013-08-22 15:54:00
12:20 PM,69.8,69.8,100,30.12,1.0,West,8.1,-,0.19,Rain,Heavy Rain,270,2013-08-22 16:20:00
12:34 PM,71.6,68.0,88,30.11,7.0,SW,6.9,-,0.47,Rain,Light Rain,220,2013-08-22 16:34:00
12:54 PM,72.0,69.1,91,30.10,6.0,SW,9.2,-,0.47,,Overcast,220,2013-08-22 16:54:00
1:54 PM,75.0,70.0,84,30.10,8.0,WSW,8.1,-,N/A,,Overcast,240,2013-08-22 17:54:00
2:54 PM,75.0,70.0,84,30.10,5.0,West,8.1,-,N/A,,Haze,260,2013-08-22 18:54:00
3:54 PM,72.0,69.1,91,30.09,6.0,WNW,10.4,17.3,0.00,Rain,Light Rain,300,2013-08-22 19:54:00
4:54 PM,72.0,66.9,84,30.06,10.0,NNW,5.8,-,0.00,,Overcast,330,2013-08-22 20:54:00
5:54 PM,71.1,68.0,90,30.08,10.0,SW,6.9,-,0.00,,Mostly Cloudy,230,2013-08-22 21:54:00
6:54 PM,71.1,68.0,90,30.05,10.0,Calm,Calm,-,0.00,,Mostly Cloudy,0,2013-08-22 22:54:00
7:54 PM,70.0,68.0,93,30.02,9.0,South,3.5,-,N/A,,Mostly Cloudy,180,2013-08-22 23:54:00
8:54 PM,69.1,66.9,93,30.03,8.0,WSW,3.5,-,N/A,,Mostly Cloudy,250,2013-08-23 00:54:00
9:54 PM,69.1,66.9,93,30.06,7.0,WNW,5.8,-,N/A,,Mostly Cloudy,290,2013-08-23 01:54:00
10:54 PM,69.1,66.0,90,30.07,10.0,WNW,5.8,-,N/A,,Overcast,290,2013-08-23 02:54:00
11:54 PM,69.1,66.0,90,30.08,10.0,NW,3.5,-,N/A,,Overcast,310,2013-08-23 03:54:00